SCP
0 0 0 0 0 0 0 0 0 0 0 0 0 0 0 0 0 0 0 0 0 0 0 0 0 0 0 0 0 0 0 0 0 0 0 0 0 0 0 0 0 0 0 0
0 0 0 0 0 0 0 0 0 0 0 -0 0 0 0 0 0 0 0 0 0 0 0 0 0 0 0 0 0 0 0 0 0 0 0 0 0 0 0 0 0 0 0 0
0 0 0 0 0 0 0 0 0 0 0 -0 -0 -0 0 0 0 0 0 0 0 0 0 0 0 0 0 0 0 0 0 0 0 0 0 0 0 0 0 0 0 0 0 -0
0 0 0 0 0 0 0 0 0 0 0 0 0 -0 0 0 0 0 0 0 0 0 0 0 0 0 0 0 0 0 0 0 0 0 0 0 0 0 0 0 0 0 -0 -0
0 0 0 0 0 0 0 0 0 0 0 0 0 0 -0 0 0 0 0 0 0 0 0 0 0 0 0 0 0 0 0 0 0 0 0 0 0 0 0 0 0 -0 -0 -0
0 0 0 0 0 0 0 0 0 0 0 0 0 0 -0 -0 0 0 0 0 0 0 0 0 0 0 0 0 0 0 0 0 0 0 0 0 0 0 0 0 0 -0 -0 0
0 0 0 0 0 0 0 0 0 0 0 0 0 0 0 0 0 0 0 0 0 0 0 0 0 0 0 0 0 0 0 0 0 0 0 0 0 0 0 0 0 0 0 0
0 0 0 0 0 0 0 0 0 0 0 0 0 0 0 0 0 0 0 0 0 0 0 0 0 0 0 0 0 0 0 0 0 0 0 0 0 0 0 0 0 0 0 0
0 0 0 0 0 0 0 0 0 0 0 0 0 0 0 0 0 0 0 0 0 0 0 0 0 0 0 0 0 0 0 0 0 0 0 0 0 0 0 0 0 0 0 0
0 0 0 0 0 0 0 0 0 0 0 0 0 0 0 0 0 0 0 0 0 0 0 0 0 0 0 0 0 0 0 0 0 0 0 0 0 0 0 0 0 0 0 0
0 0 0 0 0 0 0 0 0 0 0 0 0 0 0 0 0 0 0 0 0 0 0 0 0 0 0 0 0 0 0 0 0 0 0 0 0 0 0 0 0 0 0 0
0 0 0 0 0 0 0 0 0 0 0 0 0 0 0 0 0 0 0 0 0 0 0 0 0 0 0 0 0 0 0 0 0 0 0 0 0 0 0 0 0 0 0 0
0 0 0 0 0 0 0 0 0 0 0 0 0 0 0 0 0 0 0 0 0 0 0 0 0 0 0 0 0 0 0 0 0 0 0 0 0 0 0 0 0 0 0 0
0 0 0 0 0 0 0 0 0 0 0 0 0 0 0 0 0 0 0 0 0 0 0 0 0 0 0 0 0 0 0 0 0 0 0 0 0 0 0 0 0 0 0 0
0 0 0 0 0 0 0 0 0 0 0 0 0 0 0 0 0 0 0 0 0 0 0 0 0 0 0 0 0 0 0 0 0 0 0 0 0 0 0 0 0 0 0 0
0 0 0 0 0 0 0 0 0 0 0 0 0 0 0 0 0 0 0 0 0 0 0 0 0 0 0 0 0 0 0 0 0 0 0 0 0 0 0 0 0 0 0 0
0 0 0 0 0 0 0 0 0 0 0 0 0 0 0 0 0 0 0 -0 -0 -0 0 0 0 0 0 0 0 0 0 0 0 0 0 0 0 0 0 0 0 0 0 0
0 0 0 0 0 0 0 0 0 0 0 0 0 0 0 0 0 0 0 0 0 0 0 0 0 0 0 0 0 0 0 0 0 0 0 0 0 0 0 0 0 0 0 0
0 0 0 0 0 0 0 0 0 0 0 0 0 0 0 0 0 0 0 0 0 0 0 0 0 0 0 0 0 0 0 0 0 0 0 0 0 0 0 0 0 0 0 0
0 0 0 0 0 0 0 0 0 0 0 0 0 0 0 0 0 0 0 0 0 0 0 0 0 0 0 0 0 0 0 0 0 0 0 0 0 0 0 0 0 0 0 0
0 0 -0 0 0 0 0 0 0 0 0 0 0 0 0 0 0 0 0 0 0 0 0 0 0 0 0 0 0 0 0 0 0 0 0 0 0 0 0 0 0 0 0 0
0 0 0 0 0 0 0 0 0 0 0 0 0 0 0 0 0 0 0 0 0 0 0 0 0 0 0 0 0 0 0 0 0 0 0 0 0 0 0 0 0 0 0 0
0 0 0 0 0 0 0 0 0 0 0 0 0 0 0 0 0 0 0 0 0 0 0 0 0 0 0 0 0 0 0 0 0 0 0 0 0 0 0 0 0 0 0 0
0 0 0 0 0 0 0 0 0 0 0 0 0 0 0 0 0 0 0 0 0 0 0 0 0 0 0 0 0 0 0 0 0 0 0 0 0 0 0 0 0 0 0 0
0 0 0 0 0 0 0 0 0 0 0 0 0 0 0 0 0 0 0 0 0 0 0 0 0 0 0 0 0 -0 -0 -0 0 0 0 0 0 0 0 0 0 0 0 0
0 0 0 0 0 0 0 0 0 0 0 0 0 0 0 0 0 0 0 0 0 0 0 0 -0 -0 0 0 0 -0 -0 -0 -0 -0 -0 -0 -0 0 0 0 0 0 0 0
Wind_Speed_500mb
5 7 14 10 9 5 8 5 3 3 4 6 10 19 37 38 44 53 54 60 45 29 28 25 38 44 44 46 43 39 33 28 23 22 25 22 18 18 14 12 8 4 8 21
9 12 10 9 7 3 4 5 7 8 5 2 12 35 37 31 30 38 42 32 30 27 17 12 23 38 45 45 43 37 32 26 22 22 22 18 16 16 8 7 4 6 17 29
10 3 12 15 8 9 5 9 6 9 10 3 13 18 14 10 11 22 25 25 17 11 14 10 27 40 45 45 41 33 28 23 21 21 19 15 15 10 2 5 6 11 25 30
7 4 10 7 7 11 6 12 10 5 6 6 8 11 13 13 23 8 24 19 11 11 13 12 29 42 46 44 38 32 26 22 21 19 16 13 12 4 4 8 10 16 30 30
10 8 8 8 11 15 10 8 10 5 7 5 7 4 15 8 15 11 16 30 14 14 9 5 23 38 43 43 37 30 24 21 19 18 15 12 8 7 9 12 14 19 30 27
4 1 7 11 4 10 15 10 12 9 5 3 7 8 10 6 7 14 14 38 24 14 10 3 22 36 44 41 35 27 21 19 17 17 15 12 9 13 13 13 15 19 27 23
2 5 3 5 10 7 4 10 4 8 5 10 3 4 19 16 22 13 15 37 26 10 11 6 22 41 43 38 31 23 18 18 16 16 15 14 12 15 18 15 15 19 23 22
12 5 16 11 12 15 12 11 11 13 7 6 6 11 9 6 24 48 49 38 29 18 12 4 16 35 35 31 25 20 17 17 15 15 16 16 14 18 19 21 15 19 23 22
9 8 1 3 4 8 10 8 9 12 5 6 7 14 4 13 27 43 56 64 58 33 18 6 11 27 27 25 21 18 18 16 14 14 17 19 18 18 21 21 19 14 19 20
3 2 5 3 4 6 6 12 7 5 5 8 7 9 11 19 27 29 38 52 63 48 32 19 4 13 18 19 20 21 21 18 16 15 18 20 23 20 24 23 19 17 15 20
12 6 5 3 10 14 5 5 4 8 8 9 4 10 6 8 12 18 29 46 52 54 47 34 17 5 7 14 19 22 22 22 20 18 20 22 24 26 25 28 26 22 19 18
5 6 7 13 4 2 2 11 11 8 8 7 3 7 9 10 13 23 31 40 50 52 49 40 30 15 7 6 13 19 24 27 25 24 23 23 28 30 31 30 32 30 27 25
11 6 4 3 3 6 8 9 6 7 5 12 10 7 9 11 17 30 34 46 52 55 53 46 38 35 25 16 11 17 23 27 28 30 29 26 26 33 33 35 36 35 32 31
17 6 5 4 3 2 8 8 12 10 5 10 12 9 13 10 16 25 36 41 45 53 56 52 49 44 38 32 24 18 19 28 30 32 33 32 27 28 33 36 40 43 43 41
5 3 1 3 5 6 6 3 7 25 18 14 7 6 6 9 9 16 23 33 46 54 56 58 55 50 45 40 33 26 21 22 28 35 35 33 31 31 32 34 38 43 49 48
9 4 4 6 3 8 6 9 9 5 7 9 1 5 5 10 13 24 31 33 37 44 49 52 52 52 52 51 47 41 33 29 22 25 32 35 35 36 38 37 37 41 45 48
9 6 5 5 9 4 5 10 11 4 13 7 7 7 11 7 15 19 21 23 28 35 43 47 48 48 51 53 51 47 43 37 31 22 22 29 37 41 40 40 43 45 47 45
5 5 3 4 7 4 5 6 6 15 11 12 10 11 9 5 12 18 26 28 31 37 42 44 46 47 47 47 46 43 41 39 35 31 26 25 28 37 43 47 49 48 47 50
7 3 2 4 4 1 7 7 7 7 4 11 9 15 21 21 17 14 28 31 32 38 42 46 47 45 44 44 45 45 43 41 39 37 35 32 32 34 37 42 49 52 54 55
4 6 3 3 5 11 5 4 8 9 6 3 10 14 21 16 5 5 29 34 33 35 38 41 44 47 44 44 44 45 46 45 44 42 41 41 39 38 40 41 42 49 56 62
6 6 6 5 4 7 5 13 6 4 2 1 3 7 11 5 4 19 25 28 32 37 37 36 38 39 42 43 46 46 47 47 48 46 43 40 39 41 42 43 44 48 52 57
6 6 4 2 2 11 2 1 5 7 7 5 3 3 6 9 16 20 25 30 33 33 34 35 38 39 42 46 47 46 47 51 52 53 50 46 43 41 43 44 43 42 48 54
4 9 7 12 7 4 2 2 18 11 6 4 5 9 12 16 22 27 30 27 27 30 33 36 40 41 42 46 50 53 53 56 58 58 55 53 51 47 42 45 46 44 40 44
6 8 5 6 7 6 16 12 15 7 4 9 12 15 17 24 28 27 24 25 26 29 33 39 41 44 47 48 51 53 56 58 60 62 63 61 57 56 54 48 44 49 49 45
8 12 6 8 6 6 18 23 21 20 16 20 20 20 23 29 24 23 22 23 27 33 37 41 45 49 51 53 53 56 61 63 65 65 67 67 66 64 61 58 60 54 45 47
16 11 8 9 16 10 12 11 23 31 27 27 27 27 32 31 28 27 27 30 35 39 43 48 52 56 58 60 60 60 63 67 69 71 72 74 75 74 70 67 66 58 60 53
Wind_Direction_500mb
121 128 204 178 171 109 131 159 288 272 7 289 253 278 285 290 279 278 281 291 293 292 299 268 227 225 217 210 211 213 220 233 251 269 283 291 300 321 317 330 351 29 99 124
60 241 171 138 190 211 9 32 281 278 320 269 340 295 282 275 263 268 285 288 290 294 294 263 207 204 205 208 206 207 217 231 251 267 281 284 297 317 305 6 44 115 129 138
159 243 152 141 146 169 217 201 222 224 331 47 325 293 329 307 288 295 292 289 287 312 300 246 195 197 198 200 202 205 217 234 249 266 275 277 299 313 332 66 103 130 142 147
236 273 110 131 196 137 209 200 181 204 68 245 19 288 308 309 308 329 5 359 296 320 310 238 198 195 195 195 195 201 216 234 248 265 264 267 296 292 147 121 126 140 152 154
238 141 154 138 203 164 226 124 140 98 104 4 340 72 272 304 301 351 17 22 358 339 336 262 205 196 190 191 194 201 216 231 246 260 253 254 279 196 150 134 139 149 161 166
206 323 161 187 73 155 154 84 59 58 80 4 268 134 288 275 20 316 325 355 337 326 339 227 195 191 187 189 197 207 220 229 244 254 246 241 243 187 167 153 153 160 170 177
347 216 164 150 88 42 105 93 350 352 9 225 335 87 246 324 323 311 330 348 1 339 349 301 199 187 188 195 202 214 227 231 247 252 244 235 231 199 185 177 175 187 191 199
159 264 174 189 177 175 190 152 158 203 203 260 100 229 241 27 24 21 18 28 29 27 21 316 209 196 194 203 213 227 239 236 253 251 241 231 228 211 199 195 202 207 210 217
154 263 349 97 128 128 183 199 162 106 39 50 223 279 252 29 11 14 7 11 22 23 17 10 199 200 202 216 230 246 249 250 265 256 246 238 232 223 213 212 213 219 211 210
76 161 22 354 112 41 161 165 85 7 172 232 268 277 254 1 353 359 9 6 15 34 32 38 96 194 212 231 248 260 255 259 267 266 253 246 236 233 223 221 216 207 202 209
109 47 338 137 210 169 136 188 83 142 170 181 155 253 25 24 5 352 6 13 15 34 40 45 57 106 220 252 265 268 264 270 277 280 270 254 245 238 235 228 224 220 215 219
57 134 183 205 218 289 320 207 170 155 222 236 146 267 96 84 44 19 14 16 25 38 44 48 50 40 4 285 272 274 274 276 282 282 276 266 252 246 240 238 234 234 233 234
149 175 104 11 19 13 217 199 184 119 102 203 147 238 129 69 50 28 21 21 26 31 37 43 46 42 33 9 316 275 269 271 275 277 276 273 264 253 251 244 239 237 237 239
171 171 205 200 106 337 190 201 182 173 192 222 223 150 212 35 30 21 20 26 29 29 30 31 36 34 31 26 13 336 298 277 270 268 274 274 275 270 260 255 249 243 238 240
55 103 115 283 279 345 346 325 207 209 224 218 298 211 53 48 40 32 30 29 30 27 26 25 26 22 19 20 20 14 350 313 279 269 266 270 277 275 270 264 258 254 245 242
344 56 36 303 236 229 244 234 273 313 306 285 255 147 36 87 51 37 29 29 28 23 21 21 20 17 16 13 12 9 5 358 328 289 271 263 264 271 274 272 271 266 260 250
7 357 41 285 341 302 231 6 324 34 39 345 255 39 17 39 54 41 34 35 25 15 13 13 13 11 12 12 9 5 4 359 354 333 298 275 264 261 259 263 267 269 271 267
20 14 4 284 358 294 116 22 52 97 52 35 62 43 29 12 96 62 37 27 15 7 1 1 0 1 3 2 2 4 2 359 354 345 332 310 288 275 269 263 262 261 265 268
217 346 297 216 206 97 175 16 16 3 67 18 33 20 3 339 157 62 19 12 5 358 354 350 347 348 347 346 348 352 355 358 353 348 342 332 315 297 286 277 269 266 263 262
170 302 124 11 202 220 54 358 328 294 242 8 30 27 7 10 187 47 348 348 347 347 344 343 344 340 337 337 338 338 339 338 343 349 348 343 334 319 303 290 281 271 265 263
1 8 191 224 257 287 302 316 54 116 173 170 28 15 19 43 354 309 318 328 331 334 340 345 351 354 353 345 338 336 336 333 332 330 334 339 337 331 320 307 293 281 274 267
162 124 210 68 67 260 323 58 157 160 173 208 253 298 333 323 322 317 323 327 332 338 344 350 354 358 356 355 352 352 347 340 334 328 324 322 324 330 329 322 312 298 285 277
288 185 188 177 217 204 341 176 138 162 191 252 299 296 303 310 317 321 323 330 335 339 342 346 349 350 352 352 352 349 349 346 344 342 335 325 317 318 320 319 318 315 307 293
283 180 203 38 296 236 164 175 184 197 271 298 292 295 297 308 314 315 319 324 327 331 333 337 339 341 343 344 345 342 340 340 339 339 339 339 332 320 314 315 317 314 313 311
215 149 187 266 259 258 235 245 249 246 270 306 297 292 294 303 302 299 303 308 316 323 327 330 331 331 333 332 334 334 333 332 332 332 332 332 332 332 328 318 314 311 309 310
191 189 165 221 194 186 213 243 239 241 264 285 281 284 293 294 291 293 299 307 313 317 319 320 320 319 319 319 319 322 324 323 323 323 324 324 325 325 326 325 320 314 306 301
Wind_Speed_850mb
5 7 14 10 9 5 8 5 3 3 4 6 10 19 37 38 44 53 54 60 45 29 28 25 38 44 44 46 43 39 33 28 23 22 25 22 18 18 14 12 8 4 8 21
9 12 10 9 7 3 4 5 7 8 5 2 12 35 37 31 30 38 42 32 30 27 17 12 23 38 45 45 43 37 32 26 22 22 22 18 16 16 8 7 4 6 17 29
10 3 12 15 8 9 5 9 6 9 10 3 13 18 14 10 11 22 25 25 17 11 14 10 27 40 45 45 41 33 28 23 21 21 19 15 15 10 2 5 6 11 25 30
7 4 10 7 7 11 6 12 10 5 6 6 8 11 13 13 23 8 24 19 11 11 13 12 29 42 46 44 38 32 26 22 21 19 16 13 12 4 4 8 10 16 30 30
10 8 8 8 11 15 10 8 10 5 7 5 7 4 15 8 15 11 16 30 14 14 9 5 23 38 43 43 37 30 24 21 19 18 15 12 8 7 9 12 14 19 30 27
4 1 7 11 4 10 15 10 12 9 5 3 7 8 10 6 7 14 14 38 24 14 10 3 22 36 44 41 35 27 21 19 17 17 15 12 9 13 13 13 15 19 27 23
2 5 3 5 10 7 4 10 4 8 5 10 3 4 19 16 22 13 15 37 26 10 11 6 22 41 43 38 31 23 18 18 16 16 15 14 12 15 18 15 15 19 23 22
12 5 16 11 12 15 12 11 11 13 7 6 6 11 9 6 24 48 49 38 29 18 12 4 16 35 35 31 25 20 17 17 15 15 16 16 14 18 19 21 15 19 23 22
9 8 1 3 4 8 10 8 9 12 5 6 7 14 4 13 27 43 56 64 58 33 18 6 11 27 27 25 21 18 18 16 14 14 17 19 18 18 21 21 19 14 19 20
3 2 5 3 4 6 6 12 7 5 5 8 7 9 11 19 27 29 38 52 63 48 32 19 4 13 18 19 20 21 21 18 16 15 18 20 23 20 24 23 19 17 15 20
12 6 5 3 10 14 5 5 4 8 8 9 4 10 6 8 12 18 29 46 52 54 47 34 17 5 7 14 19 22 22 22 20 18 20 22 24 26 25 28 26 22 19 18
5 6 7 13 4 2 2 11 11 8 8 7 3 7 9 10 13 23 31 40 50 52 49 40 30 15 7 6 13 19 24 27 25 24 23 23 28 30 31 30 32 30 27 25
11 6 4 3 3 6 8 9 6 7 5 12 10 7 9 11 17 30 34 46 52 55 53 46 38 35 25 16 11 17 23 27 28 30 29 26 26 33 33 35 36 35 32 31
17 6 5 4 3 2 8 8 12 10 5 10 12 9 13 10 16 25 36 41 45 53 56 52 49 44 38 32 24 18 19 28 30 32 33 32 27 28 33 36 40 43 43 41
5 3 1 3 5 6 6 3 7 25 18 14 7 6 6 9 9 16 23 33 46 54 56 58 55 50 45 40 33 26 21 22 28 35 35 33 31 31 32 34 38 43 49 48
9 4 4 6 3 8 6 9 9 5 7 9 1 5 5 10 13 24 31 33 37 44 49 52 52 52 52 51 47 41 33 29 22 25 32 35 35 36 38 37 37 41 45 48
9 6 5 5 9 4 5 10 11 4 13 7 7 7 11 7 15 19 21 23 28 35 43 47 48 48 51 53 51 47 43 37 31 22 22 29 37 41 40 40 43 45 47 45
5 5 3 4 7 4 5 6 6 15 11 12 10 11 9 5 12 18 26 28 31 37 42 44 46 47 47 47 46 43 41 39 35 31 26 25 28 37 43 47 49 48 47 50
7 3 2 4 4 1 7 7 7 7 4 11 9 15 21 21 17 14 28 31 32 38 42 46 47 45 44 44 45 45 43 41 39 37 35 32 32 34 37 42 49 52 54 55
4 6 3 3 5 11 5 4 8 9 6 3 10 14 21 16 5 5 29 34 33 35 38 41 44 47 44 44 44 45 46 45 44 42 41 41 39 38 40 41 42 49 56 62
6 6 6 5 4 7 5 13 6 4 2 1 3 7 11 5 4 19 25 28 32 37 37 36 38 39 42 43 46 46 47 47 48 46 43 40 39 41 42 43 44 48 52 57
6 6 4 2 2 11 2 1 5 7 7 5 3 3 6 9 16 20 25 30 33 33 34 35 38 39 42 46 47 46 47 51 52 53 50 46 43 41 43 44 43 42 48 54
4 9 7 12 7 4 2 2 18 11 6 4 5 9 12 16 22 27 30 27 27 30 33 36 40 41 42 46 50 53 53 56 58 58 55 53 51 47 42 45 46 44 40 44
6 8 5 6 7 6 16 12 15 7 4 9 12 15 17 24 28 27 24 25 26 29 33 39 41 44 47 48 51 53 56 58 60 62 63 61 57 56 54 48 44 49 49 45
8 12 6 8 6 6 18 23 21 20 16 20 20 20 23 29 24 23 22 23 27 33 37 41 45 49 51 53 53 56 61 63 65 65 67 67 66 64 61 58 60 54 45 47
16 11 8 9 16 10 12 11 23 31 27 27 27 27 32 31 28 27 27 30 35 39 43 48 52 56 58 60 60 60 63 67 69 71 72 74 75 74 70 67 66 58 60 53
Wind_Direction_850mb
121 128 204 178 171 109 131 159 288 272 7 289 253 278 285 290 279 278 281 291 293 292 299 268 227 225 217 210 211 213 220 233 251 269 283 291 300 321 317 330 351 29 99 124
60 241 171 138 190 211 9 32 281 278 320 269 340 295 282 275 263 268 285 288 290 294 294 263 207 204 205 208 206 207 217 231 251 267 281 284 297 317 305 6 44 115 129 138
159 243 152 141 146 169 217 201 222 224 331 47 325 293 329 307 288 295 292 289 287 312 300 246 195 197 198 200 202 205 217 234 249 266 275 277 299 313 332 66 103 130 142 147
236 273 110 131 196 137 209 200 181 204 68 245 19 288 308 309 308 329 5 359 296 320 310 238 198 195 195 195 195 201 216 234 248 265 264 267 296 292 147 121 126 140 152 154
238 141 154 138 203 164 226 124 140 98 104 4 340 72 272 304 301 351 17 22 358 339 336 262 205 196 190 191 194 201 216 231 246 260 253 254 279 196 150 134 139 149 161 166
206 323 161 187 73 155 154 84 59 58 80 4 268 134 288 275 20 316 325 355 337 326 339 227 195 191 187 189 197 207 220 229 244 254 246 241 243 187 167 153 153 160 170 177
347 216 164 150 88 42 105 93 350 352 9 225 335 87 246 324 323 311 330 348 1 339 349 301 199 187 188 195 202 214 227 231 247 252 244 235 231 199 185 177 175 187 191 199
159 264 174 189 177 175 190 152 158 203 203 260 100 229 241 27 24 21 18 28 29 27 21 316 209 196 194 203 213 227 239 236 253 251 241 231 228 211 199 195 202 207 210 217
154 263 349 97 128 128 183 199 162 106 39 50 223 279 252 29 11 14 7 11 22 23 17 10 199 200 202 216 230 246 249 250 265 256 246 238 232 223 213 212 213 219 211 210
76 161 22 354 112 41 161 165 85 7 172 232 268 277 254 1 353 359 9 6 15 34 32 38 96 194 212 231 248 260 255 259 267 266 253 246 236 233 223 221 216 207 202 209
109 47 338 137 210 169 136 188 83 142 170 181 155 253 25 24 5 352 6 13 15 34 40 45 57 106 220 252 265 268 264 270 277 280 270 254 245 238 235 228 224 220 215 219
57 134 183 205 218 289 320 207 170 155 222 236 146 267 96 84 44 19 14 16 25 38 44 48 50 40 4 285 272 274 274 276 282 282 276 266 252 246 240 238 234 234 233 234
149 175 104 11 19 13 217 199 184 119 102 203 147 238 129 69 50 28 21 21 26 31 37 43 46 42 33 9 316 275 269 271 275 277 276 273 264 253 251 244 239 237 237 239
171 171 205 200 106 337 190 201 182 173 192 222 223 150 212 35 30 21 20 26 29 29 30 31 36 34 31 26 13 336 298 277 270 268 274 274 275 270 260 255 249 243 238 240
55 103 115 283 279 345 346 325 207 209 224 218 298 211 53 48 40 32 30 29 30 27 26 25 26 22 19 20 20 14 350 313 279 269 266 270 277 275 270 264 258 254 245 242
344 56 36 303 236 229 244 234 273 313 306 285 255 147 36 87 51 37 29 29 28 23 21 21 20 17 16 13 12 9 5 358 328 289 271 263 264 271 274 272 271 266 260 250
7 357 41 285 341 302 231 6 324 34 39 345 255 39 17 39 54 41 34 35 25 15 13 13 13 11 12 12 9 5 4 359 354 333 298 275 264 261 259 263 267 269 271 267
20 14 4 284 358 294 116 22 52 97 52 35 62 43 29 12 96 62 37 27 15 7 1 1 0 1 3 2 2 4 2 359 354 345 332 310 288 275 269 263 262 261 265 268
217 346 297 216 206 97 175 16 16 3 67 18 33 20 3 339 157 62 19 12 5 358 354 350 347 348 347 346 348 352 355 358 353 348 342 332 315 297 286 277 269 266 263 262
170 302 124 11 202 220 54 358 328 294 242 8 30 27 7 10 187 47 348 348 347 347 344 343 344 340 337 337 338 338 339 338 343 349 348 343 334 319 303 290 281 271 265 263
1 8 191 224 257 287 302 316 54 116 173 170 28 15 19 43 354 309 318 328 331 334 340 345 351 354 353 345 338 336 336 333 332 330 334 339 337 331 320 307 293 281 274 267
162 124 210 68 67 260 323 58 157 160 173 208 253 298 333 323 322 317 323 327 332 338 344 350 354 358 356 355 352 352 347 340 334 328 324 322 324 330 329 322 312 298 285 277
288 185 188 177 217 204 341 176 138 162 191 252 299 296 303 310 317 321 323 330 335 339 342 346 349 350 352 352 352 349 349 346 344 342 335 325 317 318 320 319 318 315 307 293
283 180 203 38 296 236 164 175 184 197 271 298 292 295 297 308 314 315 319 324 327 331 333 337 339 341 343 344 345 342 340 340 339 339 339 339 332 320 314 315 317 314 313 311
215 149 187 266 259 258 235 245 249 246 270 306 297 292 294 303 302 299 303 308 316 323 327 330 331 331 333 332 334 334 333 332 332 332 332 332 332 332 328 318 314 311 309 310
191 189 165 221 194 186 213 243 239 241 264 285 281 284 293 294 291 293 299 307 313 317 319 320 320 319 319 319 319 322 324 323 323 323 324 324 325 325 326 325 320 314 306 301